Time,TemperatureF,DewpointF,PressureIn,WindDirection,WindDirectionDegrees,WindSpeedMPH,WindSpeedGustMPH,Humidity,HourlyPrecipIn,Conditions,Clouds,dailyrainin,SoftwareType,DateUTC
2013-05-10 00:00:00,60.1,58.4,30.10,SSW,202,1.0,4.0,94,0.00,,---,0.00,VWS V14.01,2013-05-10 07:00:00,
2013-05-10 00:30:00,59.5,58.1,30.10,SSW,202,0.0,2.0,95,0.00,,---,0.00,VWS V14.01,2013-05-10 07:30:00,
2013-05-10 01:00:00,59.2,57.8,30.10,SSW,202,1.0,3.0,95,0.00,,---,0.00,VWS V14.01,2013-05-10 08:00:00,
2013-05-10 01:30:00,58.5,57.4,30.09,SSW,202,0.0,1.0,96,0.00,,---,0.00,VWS V14.01,2013-05-10 08:30:00,
2013-05-10 02:00:00,58.2,57.1,30.10,SSW,202,0.0,0.0,96,0.01,,---,0.01,VWS V14.01,2013-05-10 09:00:00,
2013-05-10 02:30:00,58.2,57.4,30.10,SSW,202,0.0,2.0,97,0.01,,---,0.01,VWS V14.01,2013-05-10 09:30:00,
2013-05-10 03:00:00,58.4,57.6,30.09,SSW,202,2.0,4.0,97,0.01,,---,0.01,VWS V14.01,2013-05-10 10:00:00,
2013-05-10 03:30:00,57.4,56.3,30.09,SSW,202,0.0,2.0,96,0.00,,---,0.01,VWS V14.01,2013-05-10 10:30:00,
2013-05-10 04:00:00,56.9,56.1,30.10,SSW,202,0.0,0.0,97,0.00,,---,0.01,VWS V14.01,2013-05-10 11:00:00,
2013-05-10 04:30:00,56.7,55.9,30.09,SSW,202,0.0,1.0,97,0.00,,---,0.01,VWS V14.01,2013-05-10 11:30:00,
2013-05-10 05:00:00,57.3,56.7,30.09,SSW,202,1.0,3.0,98,0.00,,---,0.01,VWS V14.01,2013-05-10 12:00:00,
2013-05-10 05:30:00,56.8,56.0,30.09,SSW,202,0.0,1.0,97,0.00,,---,0.01,VWS V14.01,2013-05-10 12:30:00,
2013-05-10 06:00:00,56.2,55.4,30.09,SSW,202,0.0,0.0,97,0.00,,---,0.01,VWS V14.01,2013-05-10 13:00:00,
2013-05-10 06:30:00,56.2,55.7,30.10,SSW,202,0.0,3.0,98,0.00,,---,0.01,VWS V14.01,2013-05-10 13:30:00,
2013-05-10 07:00:00,58.3,58.0,30.10,ENE,68,2.0,5.0,99,0.00,,---,0.01,VWS V14.01,2013-05-10 14:00:00,
2013-05-10 07:30:00,60.1,59.2,30.10,ENE,68,2.0,6.0,97,0.00,,---,0.01,VWS V14.01,2013-05-10 14:30:00,
2013-05-10 08:00:00,61.4,59.7,30.11,ENE,68,1.0,4.0,94,0.00,,---,0.01,VWS V14.01,2013-05-10 15:00:00,
2013-05-10 08:30:00,63.1,59.8,30.11,ENE,68,1.0,4.0,89,0.00,,---,0.01,VWS V14.01,2013-05-10 15:30:00,
2013-05-10 09:00:00,65.4,59.4,30.11,SE,135,1.0,4.0,81,0.00,,---,0.01,VWS V14.01,2013-05-10 16:00:00,
2013-05-10 09:30:00,67.6,60.5,30.11,SE,135,2.0,8.0,78,0.00,,---,0.01,VWS V14.01,2013-05-10 16:30:00,
2013-05-10 10:00:00,68.5,60.6,30.12,SSW,202,4.0,10.0,76,0.00,,---,0.01,VWS V14.01,2013-05-10 17:00:00,
2013-05-10 10:30:00,68.9,60.3,30.12,South,180,5.0,11.0,74,0.00,,---,0.01,VWS V14.01,2013-05-10 17:30:00,
2013-05-10 11:00:00,69.6,60.6,30.12,South,180,6.0,13.0,73,0.00,,---,0.01,VWS V14.01,2013-05-10 18:00:00,
2013-05-10 11:30:00,69.8,60.4,30.12,South,180,7.0,13.0,72,0.00,,---,0.01,VWS V14.01,2013-05-10 18:30:00,
2013-05-10 12:00:00,70.2,60.8,30.11,South,180,7.0,14.0,72,0.00,,---,0.01,VWS V14.01,2013-05-10 19:00:00,
2013-05-10 12:30:00,71.7,61.4,30.10,South,180,6.0,14.0,70,0.00,,---,0.01,VWS V14.01,2013-05-10 19:30:00,
2013-05-10 13:00:00,71.8,61.1,30.09,South,180,7.0,12.0,69,0.00,,---,0.01,VWS V14.01,2013-05-10 20:00:00,
2013-05-10 13:30:00,72.0,60.9,30.08,South,180,7.0,14.0,68,0.00,,---,0.01,VWS V14.01,2013-05-10 20:30:00,
2013-05-10 14:00:00,71.9,61.6,30.07,SSW,202,8.0,15.0,70,0.00,,---,0.01,VWS V14.01,2013-05-10 21:00:00,
2013-05-10 14:30:00,73.0,61.8,30.06,South,180,9.0,18.0,68,0.00,,---,0.01,VWS V14.01,2013-05-10 21:30:00,
2013-05-10 15:00:00,74.0,61.9,30.05,South,180,8.0,17.0,66,0.00,,---,0.01,VWS V14.01,2013-05-10 22:00:00,
2013-05-10 15:30:00,76.6,62.6,30.04,South,180,7.0,13.0,62,0.00,,---,0.01,VWS V14.01,2013-05-10 22:30:00,
2013-05-10 16:00:00,74.0,61.9,30.05,South,180,8.0,17.0,66,0.00,,---,0.01,VWS V14.01,2013-05-10 23:00:00,
2013-05-10 16:28:00,77.4,60.0,30.03,West,275,5.0,12.0,55,0.01,,---,0.01,VWS V14.01,2013-05-10 23:28:00,
2013-05-10 16:30:00,77.4,60.0,30.03,West,275,5.0,12.0,55,0.01,,---,0.01,VWS V14.01,2013-05-10 23:30:00,
2013-05-10 16:58:00,77.0,59.6,30.03,West,270,7.0,12.0,55,0.01,,---,0.01,VWS V14.01,2013-05-10 23:58:00,
2013-05-10 17:00:00,77.0,59.6,30.03,West,270,7.0,12.0,55,0.01,,---,0.01,VWS V14.01,2013-05-11 00:00:00,
2013-05-10 17:28:00,76.3,60.9,30.02,WSW,237,6.0,12.0,59,0.00,,---,0.01,VWS V14.01,2013-05-11 00:28:00,
2013-05-10 17:30:00,76.3,60.9,30.02,WSW,237,6.0,12.0,59,0.00,,---,0.01,VWS V14.01,2013-05-11 00:30:00,
2013-05-10 17:58:00,73.1,61.1,30.03,SSE,165,2.0,11.0,66,0.00,,---,0.01,VWS V14.01,2013-05-11 00:58:00,
2013-05-10 18:00:00,73.1,61.1,30.03,SSE,165,2.0,11.0,66,0.00,,---,0.01,VWS V14.01,2013-05-11 01:00:00,
2013-05-10 18:28:00,69.9,61.2,30.02,South,174,4.0,12.0,74,0.00,,---,0.01,VWS V14.01,2013-05-11 01:28:00,
2013-05-10 18:30:00,69.9,61.2,30.02,South,174,4.0,12.0,74,0.00,,---,0.01,VWS V14.01,2013-05-11 01:30:00,
2013-05-10 18:58:00,68.7,61.2,30.04,SSW,204,2.0,12.0,77,0.00,,---,0.01,VWS V14.01,2013-05-11 01:58:00,
2013-05-10 19:00:00,68.7,61.2,30.04,SSW,204,2.0,12.0,77,0.00,,---,0.01,VWS V14.01,2013-05-11 02:00:00,
2013-05-10 19:28:00,68.8,61.3,30.04,South,177,3.0,7.0,77,0.00,,---,0.01,VWS V14.01,2013-05-11 02:28:00,
2013-05-10 19:30:00,68.8,61.3,30.04,South,177,3.0,7.0,77,0.00,,---,0.01,VWS V14.01,2013-05-11 02:30:00,
2013-05-10 19:58:00,67.6,61.6,30.05,South,180,3.0,4.0,81,0.00,,---,0.01,VWS V14.01,2013-05-11 02:58:00,
2013-05-10 20:00:00,67.6,61.6,30.05,South,180,3.0,4.0,81,0.00,,---,0.01,VWS V14.01,2013-05-11 03:00:00,
2013-05-10 20:28:00,66.5,61.5,30.07,South,181,2.0,4.0,84,0.00,,---,0.01,VWS V14.01,2013-05-11 03:28:00,
2013-05-10 20:30:00,66.5,61.5,30.07,South,181,2.0,4.0,84,0.00,,---,0.01,VWS V14.01,2013-05-11 03:30:00,
2013-05-10 20:58:00,65.6,61.3,30.08,South,179,1.0,3.0,86,0.00,,---,0.01,VWS V14.01,2013-05-11 03:58:00,
2013-05-10 21:00:00,65.6,61.3,30.08,South,179,1.0,3.0,86,0.00,,---,0.01,VWS V14.01,2013-05-11 04:00:00,
2013-05-10 21:28:00,64.9,60.9,30.08,South,177,1.0,3.0,87,0.00,,---,0.01,VWS V14.01,2013-05-11 04:28:00,
2013-05-10 21:30:00,64.9,60.9,30.08,South,177,1.0,3.0,87,0.00,,---,0.01,VWS V14.01,2013-05-11 04:30:00,
2013-05-10 21:58:00,64.3,60.7,30.09,South,175,1.0,4.0,88,0.00,,---,0.01,VWS V14.01,2013-05-11 04:58:00,
2013-05-10 22:00:00,64.3,60.7,30.09,South,175,1.0,4.0,88,0.00,,---,0.01,VWS V14.01,2013-05-11 05:00:00,
2013-05-10 22:28:00,63.6,60.3,30.09,South,180,1.0,2.0,89,0.00,,---,0.01,VWS V14.01,2013-05-11 05:28:00,
2013-05-10 22:30:00,63.6,60.3,30.09,South,180,1.0,2.0,89,0.00,,---,0.01,VWS V14.01,2013-05-11 05:30:00,
2013-05-10 23:00:00,63.3,60.6,30.09,South,180,2.0,6.0,91,0.00,,---,0.00,VWS V14.01,2013-05-11 06:00:00,
2013-05-10 23:30:00,62.6,59.9,30.09,South,180,1.0,5.0,91,0.00,,---,0.00,VWS V14.01,2013-05-11 06:30:00,